FW0695 Weather Reports


time (UTC)temp
C
wind
direction
speed
KPH
gust
KPH
rain 1hr
cm
rain 24hr
cm
rain mn
cm
humidity
%
barometer
mb
20260510184606 20 17 4.8 14.5 0.00 0.05 0.00 32 1023.4
20260510183057 20 20 4.8 14.5 0.00 0.05 0.00 33 1023.6
20260510181609 20 98 6.4 17.7 0.00 0.05 0.00 35 1023.6
20260510180108 19 89 4.8 14.5 0.00 0.05 0.00 36 1023.6
20260510174558 18 93 4.8 14.5 0.00 0.05 0.00 42 1023.8
20260510173103 17 23 3.2 9.7 0.00 0.05 0.00 44 1024.1
20260510171603 17 34 4.8 14.5 0.00 0.05 0.00 44 1024.1
20260510170057 16 73 4.8 14.5 0.00 0.05 0.00 46 1024.2
20260510164602 16 79 3.2 12.9 0.00 0.05 0.00 46 1024.4
20260510163059 15 84 4.8 16.1 0.00 0.05 0.00 46 1024.0
20260510161604 15 71 6.4 17.7 0.00 0.05 0.00 45 1023.9
20260510160059 15 74 4.8 11.3 0.00 0.05 0.00 50 1024.0
20260510154602 15 351 4.8 14.5 0.00 0.05 0.00 52 1023.8
20260510153102 14 44 4.8 12.9 0.00 0.05 0.00 56 1023.6
20260510151558 13 79 3.2 11.3 0.00 0.05 0.00 59 1023.2
20260510150126 13 66 4.8 14.5 0.00 0.05 0.00 62 1023.0
20260510144603 12 60 4.8 9.7 0.00 0.05 0.00 68 1023.4
20260510143106 12 347 1.6 4.8 0.00 0.05 0.00 71 1023.9
20260510141608 12 0 0.0 3.2 0.00 0.05 0.00 73 1023.9
20260510134610 12 0 0.0 3.2 0.00 0.05 0.00 75 1023.4
20260510133112 11 72 0.0 3.2 0.00 0.05 0.00 76 1022.4
20260510131610 12 61 1.6 6.4 0.00 0.05 0.00 76 1022.6
20260510130110 12 50 1.6 4.8 0.00 0.05 0.00 73 1022.4
20260510124608 12 0 0.0 3.2 0.00 0.05 0.00 72 1022.3
20260510123102 12 0 0.0 4.8 0.00 0.05 0.00 72 1022.0
20260510121558 12 0 0.0 4.8 0.00 0.05 0.00 75 1021.7
20260510120058 12 2 3.2 12.9 0.00 0.05 0.00 74 1020.4
20260510114601 12 32 3.2 12.9 0.00 0.05 0.00 77 1019.8
20260510113057 13 322 9.7 25.7 0.00 0.05 0.00 71 1019.5
20260510111606 14 283 6.4 16.1 0.00 0.05 0.00 63 1019.0
20260510110059 14 71 4.8 16.1 0.00 0.05 0.00 62 1018.8
20260510104607 15 27 6.4 20.9 0.00 0.05 0.00 62 1018.3
20260510103104 15 44 8.0 20.9 0.00 0.05 0.00 62 1018.4
20260510101600 14 23 6.4 16.1 0.00 0.05 0.00 64 1018.4
20260510100057 14 304 8.0 20.9 0.00 0.05 0.00 65 1018.2
20260510094613 15 13 6.4 25.7 0.00 0.05 0.00 65 1018.1
20260510093119 15 30 8.0 19.3 0.00 0.05 0.00 64 1018.0
20260510091557 15 31 6.4 16.1 0.00 0.05 0.00 64 1017.8
20260510090059 15 309 8.0 24.1 0.00 0.05 0.00 64 1017.7
20260510084557 15 36 6.4 16.1 0.00 0.05 0.00 63 1017.5
20260510083106 15 6 6.4 17.7 0.00 0.05 0.00 63 1017.3
20260510081558 15 75 4.8 12.9 0.00 0.05 0.00 63 1017.0
20260510080100 15 4 6.4 16.1 0.00 0.05 0.00 63 1016.9
20260510074602 15 75 6.4 12.9 0.00 0.05 0.00 64 1016.9
20260510073058 15 74 3.2 14.5 0.00 0.05 0.00 65 1016.6
20260510071559 15 16 4.8 14.5 0.00 0.05 0.00 65 1016.6
20260510070056 16 42 4.8 11.3 0.00 0.05 0.00 65 1016.5
20260510064604 16 40 3.2 9.7 0.00 0.05 0.00 65 1016.1
20260510063057 16 31 3.2 8.0 0.00 0.05 0.00 65 1016.0
20260510061600 16 35 3.2 9.7 0.00 0.05 0.00 63 1015.7
20260510060059 16 62 1.6 8.0 0.00 0.05 0.00 63 1015.4
20260510054557 17 25 1.6 6.4 0.00 0.05 0.00 62 1015.2
20260510053055 17 59 4.8 8.0 0.00 0.05 0.00 61 1014.9
20260510051606 17 44 1.6 6.4 0.00 0.05 0.00 61 1014.7
20260510050057 17 39 1.6 4.8 0.00 0.05 0.00 61 1014.6
20260510044617 18 100 3.2 9.7 0.00 0.05 0.05 61 1014.4
20260510043058 18 347 3.2 8.0 0.00 0.05 0.05 60 1014.3
20260510041558 18 86 1.6 9.7 0.00 0.05 0.05 59 1014.0
20260510040058 19 70 3.2 11.3 0.00 0.05 0.05 58 1013.9
20260510034557 19 80 3.2 11.3 0.00 0.05 0.05 56 1013.9
20260510033110 20 120 4.8 12.9 0.00 0.05 0.05 56 1013.7
20260510031557 20 119 3.2 14.5 0.00 0.05 0.05 56 1013.5
20260510030106 20 44 3.2 8.0 0.00 0.05 0.05 54 1013.2
20260510024600 20 15 1.6 9.7 0.00 0.05 0.05 53 1012.9
20260510023059 21 74 3.2 11.3 0.00 0.05 0.05 52 1012.1
20260510021613 21 43 1.6 8.0 0.00 0.05 0.05 50 1011.9
20260510020059 21 53 1.6 8.0 0.00 0.05 0.05 49 1011.1
20260510014600 22 127 3.2 12.9 0.00 0.05 0.05 48 1011.0
20260510013105 21 0 0.0 3.2 0.05 0.05 0.05 54 1011.0
20260510011559 21 0 0.0 3.2 0.05 0.05 0.05 59 1012.5
20260510010104 20 41 0.0 4.8 0.05 0.05 0.05 60 1012.7
20260510004557 21 359 4.8 12.9 0.05 0.05 0.05 53 1012.1
20260510003101 23 163 4.8 19.3 0.00 0.00 0.00 45 1012.2
20260510001600 26 151 0.0 1.6 0.00 0.00 0.00 28 1010.1
20260510000058 27 0 0.0 3.2 0.00 0.00 0.00 25 1009.0
20260509234600 28 0 1.6 6.4 0.00 0.00 0.00 24 1008.4
20260509233100 28 125 1.6 4.8 0.00 0.00 0.00 24 1008.5
20260509231604 28 0 0.0 3.2 0.00 0.00 0.00 22 1008.7
20260509230100 30 115 0.0 4.8 0.00 0.00 0.00 22 1008.6
20260509224601 31 145 3.2 9.7 0.00 0.00 0.00 21 1008.5
20260509223058 31 195 0.0 1.6 0.00 0.00 0.00 21 1008.9
20260509221557 31 225 1.6 12.9 0.00 0.00 0.00 23 1009.1
20260509220107 31 280 1.6 9.7 0.00 0.00 0.00 22 1009.0
20260509214603 31 206 1.6 9.7 0.00 0.00 0.00 24 1008.9
20260509213134 31 111 1.6 9.7 0.00 0.00 0.00 24 1009.0
20260509211600 32 207 1.6 8.0 0.00 0.00 0.00 21 1009.2
20260509210107 31 123 3.2 11.3 0.00 0.00 0.00 23 1009.3
20260509204558 31 194 1.6 12.9 0.00 0.00 0.00 23 1009.5
20260509203101 31 208 0.0 11.3 0.00 0.00 0.00 22 1009.6
20260509201559 31 0 1.6 8.0 0.00 0.00 0.00 23 1009.7
20260509200105 31 280 1.6 8.0 0.00 0.00 0.00 24 1009.9
20260509194600 31 270 1.6 8.0 0.00 0.00 0.00 24 1010.0
20260509193058 31 143 1.6 8.0 0.00 0.00 0.00 23 1010.1
20260509191558 31 112 3.2 8.0 0.00 0.00 0.00 25 1010.2